カタログに戻る

OPS 4682 DEB

運用中PO
NORAD 15340·DEBRIS·🇺🇸 United States

打ち上げ Apr 3, 1965 から Vandenberg Space Force Base

Loading…

次のパス (今後24時間)

TLE

最新Source: Space-Track

元期: Sep 14, 2026, 13:58 UTC

1 15340U 65027R   26257.58222605 -.00000519  00000-0 -17653-2 0  9996
2 15340  90.2445   7.6923 0038195 149.0956 273.5742 12.99192138995138

AllMySatでOPS 4682 DEBをリアルタイム追跡

Download on the App Store